Weather Roundup
Issued by NWS Corpus Christi, TX

Home | Current Version | Previous Version | Text Only | Print | Product List | Glossary On
Versions: 1 2 3 4 5 6 7 8 9 10 11 12 13 14 15 16 17 18 19 20 21 22 23 24 25 26 27 28 29 30 31 32 33 34 35 36 37 38 39 40 41 42 43 44 45 46 47 48 49 50
000
ASUS44 KCRP 230510
HRRCRP

SOUTH TEXAS REGIONAL WEATHER ROUNDUP
NATIONAL WEATHER SERVICE CORPUS CHRISTI TX
1200 AM CDT WED MAY 23 2018


TXZ229>244-230600-
...CORPUS CHRISTI AREA OBSERVATIONS...

CITY           SKY/WX    TMP DP  RH WIND       PRES   REMARKS
CORPUS CHRISTI PTCLDY    77  75  93 SE8       29.95R
NAS CORPUS CHR PTCLDY    80  76  87 SE16      29.95R
ROCKPORT       PTCLDY    78  74  87 SE10      29.95S
KINGSVILLE ARP FAIR      75  75 100 CALM      29.96R
KINGSVILLE NAS PTCLDY    75  73  93 CALM      29.95R
ALICE          PTCLDY    73  71  93 E5        29.95R
$$

...VICTORIA AREA OBSERVATIONS...

CITY           SKY/WX    TMP DP  RH WIND       PRES   REMARKS
PORT LAVACA    CLEAR     75  72  89 SE5       29.98S
VICTORIA       CLEAR     73  70  90 E6        29.98R
BEEVILLE       FAIR      72  71  96 E3        29.97S
PLEASANTON     PTCLDY    76  67  74 SE7       29.97R
SAN ANTONIO    PTCLDY    76  68  76 SE10      29.99R
$$

...LAREDO AREA OBSERVATIONS...

CITY           SKY/WX    TMP DP  RH WIND       PRES   REMARKS
LAREDO         CLOUDY    81  68  64 SE16      29.94R
COTULLA        CLOUDY    78  69  73 SE14      29.95R
DEL RIO        CLEAR     78  66  66 E9        29.92R
MCALLEN        CLEAR     79  74  84 SE8       29.94R
HEBBRONVILLE   CLEAR     74  68  82 SE8       29.97R
$$

...OTHER TEXAS OBSERVATIONS...

CITY           SKY/WX    TMP DP  RH WIND       PRES   REMARKS
BROWNSVILLE    FAIR      78  74  87 E6        29.94S
HOUSTON        FAIR      73  72  96 CALM      30.00R
COL. STATION   CLEAR     74  68  81 SE6       29.99S
AUSTIN         PTCLDY    72  67  84 CALM      29.99R
WACO           CLEAR     76  67  73 SE6       29.99S
FORT WORTH     PTCLDY    75  68  78 SE5       29.98R
WICHITA FALLS  PTCLDY    72  66  81 SE9       29.98R
LUBBOCK        PTCLDY    72  57  59 SE15      30.01R
EL PASO        PTCLDY    78  41  26 E12       29.89R
$$

...MARINE OBSERVATIONS...

STATION/POSITION TIME  SKY/WX   TEMP    WIND        PRES    VSBY  WAVE   SWELL
                                AIR SEA DIR/SP/G                  HT/PER HT/PER
                 (UTC)          (F)     (DEG/KT/KT) (MB)    (MI)  (FT/S) (FT/S)
PORT ARANSAS     0500            79 82  110/ 13/ 14 1014.3R
BUOY 90 E PORT A 0450            81 81  100/ 14/ 16 1014.7R         3/ 6
BUOY 200 E PT IS 0450            81 81  100/ 12/ 14 1014.2S         3/ 6   2/ 6
BUOY 15 E GALVES NOT AVBL
$$



USA.gov is the U.S. government's official web portal to all federal, state and local government web resources and services.